SCP
0 0 -0 -0 -0 -0 -0 0 0 0 -0 -0 -0 -0 -0 -0 -0 -0 -0 -0 -0 -0 0 -0 -0 0 0 0 0 0 0 0 0 -0 -0 0 -0 0 0 0 0 0 0
-0 -0 -0 -0 -0 -0 -0 -0 -0 -0 -0 -0 -0 -0 -0 -0 -0 -0 -0 -0 -0 -0 -0 -0 -0 -0 -0 0 0 0 0 0 0 0 -0 0 0 0 0 0 0 0 0
-0 0 0 -0 -0 -0 -0 -0 -0 -0 -0 -0 -0 -0 -0 -0 -0 -0 -0 -0 -0 -0 -0 -0 -0 -0 -0 -0 -0 -0 0 0 0 0 0 0 0 0 0 0 0 0 0
0 0 0 0 -0 -0 -0 -0 -0 -0 -0 -0 -0 -0 -0 -0 -0 -0 -0 -0 -0 -0 -0 -0 -0 -0 -0 -0 -0 -0 -0 -0 -0 -0 0 0 0 0 0 0 0 0 0
0 0 0 0 -0 -0 -0 -0 -0 -0 -0 -0 -0 -0 -0 -0 -0 -0 -0 -0 -0 -0 -0 -0 -0 -0 -0 -0 -0 -0 -0 -0 -0 -0 0 0 0 0 -0 0 0 0 0
0 0 0 0 -0 0 0 -0 -0 -0 -0 -0 -0 -0 -0 -0 -0 -0 -0 -0 -0 -0 -0 -0 0 0 0 0 0 -0 -0 -0 -0 0 0 0 0 -0 0 0 0 0 0
0 0 0 0 0 0 0 0 0 -0 -0 -0 -0 -0 -0 -0 -0 -0 -0 0 0 0 0 0 0 0 0 0 0 0 -0 -0 0 0 0 0 0 -0 0 0 -0 0 0
0 0 0 0 0 0 0 0 0 0 0 0 0 0 0 0 0 0 0 0 0 0 0 0 0 0 0 0 0 0 0 0 0 0 0 0 -0 0 0 0 0 -0 0
0 0 0 0 0 0 0 0 0 0 0 0 0 0 0 0 0 0 0 0 0 0 0 0 0 0 0 0 0 0 0 0 0 0 0 0 0 0 0 0 0 0 0
0 0 0 0 0 0 0 0 0 0 0 0 0 0 0 0 0 0 0 0 0 0 0 0 0 0 0 0 0 0 0 0 0 0 0 0 0 0 0 0 0 0 0
0 0 0 0 0 0 0 0 0 0 0 0 0 0 0 0 0 0 0 0 0 0 0 0 0 0 0 0 0 0 0 0 0 0 0 0 0 0 0 0 0 0 0
0 0 0 0 0 0 0 0 0 0 0 0 0 0 0 0 0 0 0 0 0 0 0 0 0 0 0 0 0 0 0 0 0 0 0 0 0 0 0 0 0 0 0
0 0 0 0 0 0 0 0 0 0 0 0 0 0 0 0 0 0 0 0 0 0 0 0 0 0 0 0 0 0 0 0 0 0 0 0 0 0 0 0 0 0 0
0 0 0 0 0 0 0 0 0 0 0 0 0 0 0 0 0 0 0 0 0 0 0 0 0 0 0 0 0 0 0 0 0 0 0 0 0 0 0 0 0 0 0
0 0 0 0 0 0 0 0 0 0 0 0 0 0 0 0 0 0 0 0 0 0 0 0 0 0 0 0 0 0 0 0 0 0 0 0 0 0 0 0 0 0 0
0 0 0 0 0 0 0 0 0 0 0 0 0 0 0 0 0 0 0 0 0 0 0 0 0 0 0 0 0 0 0 0 0 0 0 0 0 0 0 0 0 0 0
0 0 0 0 0 0 0 0 0 0 0 0 0 0 0 0 0 0 0 0 0 0 0 0 0 0 0 0 0 0 0 0 0 0 0 0 0 0 0 0 0 0 0
0 0 0 0 0 0 0 0 0 0 0 0 0 0 0 0 0 0 0 0 0 0 0 0 0 0 0 0 0 0 0 0 0 0 0 0 0 0 0 0 0 0 0
0 0 0 0 0 0 0 0 0 0 0 0 0 0 0 0 0 0 0 0 0 0 0 0 0 0 0 0 0 0 0 0 0 0 0 0 0 0 0 0 0 0 0
0 0 0 0 0 0 0 0 0 0 0 0 0 0 0 0 0 0 0 0 0 0 0 0 0 0 0 0 0 0 0 0 0 0 0 0 0 0 0 0 0 0 0
0 0 0 0 0 0 0 0 0 0 0 0 0 0 0 0 0 0 0 0 0 0 0 0 0 0 0 0 0 0 0 0 0 0 0 0 0 0 0 0 0 0 0
0 0 0 0 0 0 0 0 0 0 0 0 0 0 0 0 0 0 0 0 0 0 0 0 0 0 0 0 0 -0 0 0 0 0 0 0 0 0 0 0 0 0 0
0 0 0 0 0 0 0 0 0 0 0 0 0 0 0 0 0 0 0 0 0 0 0 0 0 0 0 0 0 0 0 0 0 0 0 0 0 0 0 0 0 0 0
0 0 0 0 0 0 0 0 0 0 0 0 0 0 0 0 0 0 0 0 0 0 0 0 0 0 0 0 0 0 0 0 0 0 0 0 0 0 0 0 0 0 0
0 0 0 0 0 0 0 0 0 0 0 0 0 0 0 0 0 0 0 0 0 0 0 0 0 0 0 0 0 0 0 0 0 0 0 0 0 0 0 0 0 0 0
0 0 0 0 0 0 0 0 0 0 0 0 0 0 0 0 0 0 0 0 0 0 0 0 0 0 0 0 0 0 0 0 0 0 0 0 -0 -0 0 0 0 0 0
Wind_Speed_500mb
46 41 36 36 36 36 31 30 26 24 22 20 19 18 17 14 13 12 11 8 7 6 5 8 7 6 3 1 2 3 4 5 8 10 10 9 7 5 7 9 10 7 7
32 41 39 35 32 35 36 31 28 25 23 23 21 21 22 21 18 15 15 13 15 11 10 8 9 8 7 5 4 5 5 6 6 6 7 6 8 6 4 9 10 11 11
35 37 36 36 35 32 32 31 29 27 27 25 24 24 23 22 21 20 17 16 18 17 17 15 11 12 12 11 11 9 8 6 6 5 5 4 4 3 0 6 7 7 10
26 34 37 38 37 38 36 32 33 31 32 33 32 30 26 25 25 23 19 19 20 20 20 17 13 13 14 14 15 15 15 13 12 10 10 7 8 8 4 8 10 12 14
30 37 38 39 41 41 40 37 36 37 36 34 30 25 29 25 22 19 19 20 20 22 21 21 20 20 21 22 22 23 23 22 20 18 15 13 12 14 12 9 15 13 13
35 41 44 44 44 44 42 40 41 39 36 33 27 25 22 18 17 16 15 16 19 19 19 20 20 22 22 24 25 28 26 27 29 28 25 22 20 18 15 12 16 20 17
37 42 46 47 47 46 45 43 38 38 34 30 24 21 19 17 15 14 14 15 16 16 17 17 16 15 15 18 19 21 22 23 26 27 28 30 28 25 22 18 18 20 25
36 43 49 49 46 45 45 42 41 38 34 30 28 24 21 18 15 13 12 11 10 9 8 7 6 6 7 10 14 15 15 16 18 20 24 26 30 32 31 30 26 19 24
37 44 51 51 49 46 45 42 41 37 34 30 28 24 22 19 18 17 16 14 12 10 8 6 5 7 9 12 14 16 16 16 18 20 21 21 25 31 35 38 35 27 21
40 46 52 54 54 51 49 47 45 40 37 34 31 28 23 20 17 16 15 14 12 10 7 5 6 8 12 14 17 18 19 19 19 20 20 21 23 26 32 35 36 37 31
46 49 55 59 58 55 53 53 50 46 43 40 37 34 29 24 20 19 17 15 13 11 9 8 9 12 15 17 20 22 22 23 22 21 21 20 20 22 26 29 31 35 38
53 52 56 61 64 62 59 59 57 53 50 46 43 39 34 30 27 24 20 19 17 16 15 14 15 16 18 21 24 27 26 26 26 25 25 23 22 21 23 25 27 30 35
53 58 60 61 66 68 67 66 64 59 54 50 48 44 39 35 30 25 23 22 21 20 20 19 20 21 23 27 29 31 32 31 28 28 28 27 25 23 24 24 25 25 24
64 60 65 65 68 70 71 72 70 68 62 57 54 52 47 41 36 32 29 28 26 24 22 23 23 24 28 32 35 37 35 35 31 27 28 26 26 25 24 26 26 25 26
74 65 65 68 70 72 75 75 76 73 68 61 60 57 52 48 42 37 33 30 28 27 26 25 27 28 30 31 33 33 33 32 32 29 27 28 28 26 24 24 26 24 25
76 74 70 71 72 76 77 79 80 77 70 67 65 62 58 52 46 40 36 33 31 29 28 28 28 30 33 35 36 35 34 32 30 30 28 26 24 24 22 23 23 26 26
80 77 75 74 76 78 79 81 82 80 76 73 71 68 63 57 51 45 42 39 35 32 31 30 30 31 34 34 35 34 33 33 32 29 27 22 20 20 19 14 15 17 19
81 80 76 75 77 82 85 84 82 82 80 78 76 72 68 62 57 52 48 45 42 39 35 32 31 34 36 35 34 33 32 33 33 28 24 17 11 10 10 12 13 15 14
80 79 75 75 77 81 86 85 82 82 82 82 79 76 71 66 61 56 54 52 49 43 36 32 30 32 36 36 35 34 35 34 29 26 18 13 9 12 12 13 13 11 11
83 82 77 76 78 82 85 85 85 83 84 82 81 78 73 69 65 63 60 57 53 47 40 35 33 35 36 37 37 35 35 33 24 18 10 17 20 14 11 11 11 17 24
82 76 80 86 85 88 88 87 90 92 87 86 84 81 78 74 72 68 63 62 56 49 42 40 36 32 32 35 37 34 32 17 17 18 12 10 6 6 11 15 28 30 30
71 68 71 82 91 91 90 86 91 91 90 86 85 84 82 80 76 72 67 64 59 55 52 44 37 29 28 29 30 33 11 20 14 19 36 13 8 24 22 27 31 27 30
70 65 64 69 81 88 89 89 90 89 88 89 90 88 90 85 80 74 70 67 63 60 56 49 41 30 23 26 28 19 11 6 23 21 16 27 29 28 29 26 31 31 30
55 54 62 68 76 80 86 89 91 93 93 93 88 89 90 87 82 77 73 69 66 64 62 54 46 34 25 22 25 24 22 26 13 15 14 30 31 37 33 37 35 37 32
41 47 55 62 69 73 81 84 87 91 90 83 86 88 90 88 84 81 78 73 71 68 63 57 47 35 27 23 26 25 23 26 29 26 41 36 40 33 35 38 41 35 39
46 45 51 60 62 65 73 82 87 85 85 85 89 89 90 88 88 86 83 79 76 73 68 59 50 42 31 26 30 33 30 26 26 28 35 49 54 47 46 44 35 44 42
Wind_Direction_500mb
188 186 189 191 194 195 199 202 199 198 197 203 202 209 219 217 208 204 191 171 150 153 174 177 168 160 156 217 241 290 322 348 356 355 352 351 360 20 55 15 8 7 15
192 190 194 198 189 196 203 205 205 208 209 208 210 212 217 220 223 218 202 189 172 164 180 205 212 207 209 212 230 252 279 295 309 324 330 338 347 11 37 346 7 9 357
188 193 193 196 197 196 197 198 193 194 201 201 193 205 212 212 211 208 206 206 201 206 218 231 242 236 235 233 249 258 263 266 279 284 281 277 281 281 267 333 6 360 330
194 196 194 193 196 198 202 202 195 194 201 213 217 220 221 217 223 223 219 212 220 225 232 238 246 253 261 262 262 268 268 271 274 276 280 267 252 247 269 284 298 301 300
202 200 199 197 197 202 206 209 209 215 220 228 234 229 232 237 241 239 234 235 241 247 252 257 256 257 259 265 270 273 276 276 273 268 262 259 251 252 255 290 293 286 291
206 204 202 200 202 204 208 212 214 219 228 235 235 234 235 238 237 237 238 239 243 250 254 262 268 269 271 271 273 272 275 276 274 268 257 251 245 245 258 251 281 290 290
212 210 208 206 207 206 209 215 218 221 223 224 227 228 231 237 243 244 245 245 247 253 259 262 260 266 273 278 281 283 284 281 276 272 264 252 244 243 238 248 256 283 288
217 215 211 212 212 211 213 216 214 215 215 214 214 213 212 212 218 223 225 229 233 240 251 267 292 303 303 295 294 292 291 290 290 289 274 258 246 236 236 241 246 260 279
218 219 218 215 214 215 218 218 216 218 218 217 215 209 203 203 209 211 210 206 199 200 212 237 275 297 303 306 304 304 301 295 290 284 285 282 261 247 241 243 244 230 249
223 221 221 221 219 220 220 217 218 220 219 217 213 211 213 215 216 214 212 210 206 205 212 238 282 306 312 316 318 319 318 310 300 291 284 277 276 273 260 249 249 252 245
225 223 222 223 224 224 223 219 218 219 218 215 214 214 217 218 222 221 221 223 225 230 244 270 294 307 315 320 324 323 319 312 303 293 287 283 276 274 277 274 261 254 253
232 229 224 224 225 226 225 223 222 222 218 216 214 215 214 212 212 216 220 227 234 247 265 279 291 303 313 322 324 324 323 316 305 297 292 288 284 275 270 271 268 263 259
258 239 233 229 226 226 227 227 226 225 223 220 219 219 217 215 213 217 224 233 244 253 258 270 286 300 309 316 320 320 319 316 308 300 292 286 282 280 278 276 276 271 261
255 252 242 236 231 229 227 228 229 228 226 224 222 222 221 219 218 219 224 233 242 251 264 278 288 296 304 312 318 319 320 316 311 301 293 285 278 275 276 276 278 284 283
255 252 248 242 238 235 231 230 229 230 229 226 224 224 222 220 221 223 227 236 248 259 269 277 284 294 305 309 311 314 317 315 307 300 291 287 285 279 276 277 276 279 282
256 252 249 247 242 239 237 233 232 229 228 226 225 225 225 225 225 228 233 240 245 247 256 268 279 290 298 304 308 313 315 313 305 296 291 287 283 280 273 269 272 276 279
265 258 254 249 245 242 240 236 233 231 228 226 226 226 226 226 227 228 232 236 241 250 259 268 279 291 297 301 304 308 313 312 304 294 288 280 277 270 266 268 275 272 279
263 260 256 250 247 244 241 238 234 232 229 228 228 227 227 227 228 229 232 236 242 243 246 258 277 292 299 302 303 306 310 311 304 294 279 269 255 259 282 291 285 289 297
266 263 257 249 247 245 240 239 236 234 231 230 229 229 228 228 229 231 232 234 237 238 243 256 272 286 296 300 302 305 309 310 301 285 268 238 284 299 273 274 278 283 283
266 260 256 250 246 244 239 236 234 232 231 229 229 230 230 230 230 231 231 233 236 236 238 251 265 281 292 300 305 309 312 313 289 263 238 275 299 292 281 294 301 310 307
265 258 256 249 244 239 235 232 229 230 229 228 228 230 230 230 230 231 231 233 235 236 238 246 256 273 290 302 306 310 317 307 281 219 324 316 316 343 318 304 316 316 314
272 267 258 249 244 241 236 233 232 231 229 231 229 227 228 229 230 230 232 234 235 235 236 240 249 266 288 303 312 318 313 308 249 239 297 286 324 322 326 322 325 329 323
276 269 259 250 244 239 235 229 229 229 230 229 227 226 227 228 229 231 232 233 234 233 234 238 244 253 274 297 308 310 319 273 301 298 237 291 319 326 333 339 336 333 331
286 271 253 249 246 238 233 228 229 232 230 231 232 230 228 227 228 230 230 232 233 233 234 236 238 244 259 282 294 294 291 292 302 293 277 288 308 323 333 336 338 338 340
274 256 249 248 245 238 232 230 231 230 233 237 235 232 229 229 229 230 230 230 231 232 232 234 235 240 249 266 281 281 282 287 290 288 305 304 309 322 335 340 339 341 342
263 238 239 240 240 237 230 228 231 232 232 232 232 231 230 230 230 230 230 229 229 229 231 234 235 239 248 260 275 281 278 269 267 270 288 304 316 323 332 336 341 339 340
Wind_Speed_850mb
46 41 36 36 36 36 31 30 26 24 22 20 19 18 17 14 13 12 11 8 7 6 5 8 7 6 3 1 2 3 4 5 8 10 10 9 7 5 7 9 10 7 7
32 41 39 35 32 35 36 31 28 25 23 23 21 21 22 21 18 15 15 13 15 11 10 8 9 8 7 5 4 5 5 6 6 6 7 6 8 6 4 9 10 11 11
35 37 36 36 35 32 32 31 29 27 27 25 24 24 23 22 21 20 17 16 18 17 17 15 11 12 12 11 11 9 8 6 6 5 5 4 4 3 0 6 7 7 10
26 34 37 38 37 38 36 32 33 31 32 33 32 30 26 25 25 23 19 19 20 20 20 17 13 13 14 14 15 15 15 13 12 10 10 7 8 8 4 8 10 12 14
30 37 38 39 41 41 40 37 36 37 36 34 30 25 29 25 22 19 19 20 20 22 21 21 20 20 21 22 22 23 23 22 20 18 15 13 12 14 12 9 15 13 13
35 41 44 44 44 44 42 40 41 39 36 33 27 25 22 18 17 16 15 16 19 19 19 20 20 22 22 24 25 28 26 27 29 28 25 22 20 18 15 12 16 20 17
37 42 46 47 47 46 45 43 38 38 34 30 24 21 19 17 15 14 14 15 16 16 17 17 16 15 15 18 19 21 22 23 26 27 28 30 28 25 22 18 18 20 25
36 43 49 49 46 45 45 42 41 38 34 30 28 24 21 18 15 13 12 11 10 9 8 7 6 6 7 10 14 15 15 16 18 20 24 26 30 32 31 30 26 19 24
37 44 51 51 49 46 45 42 41 37 34 30 28 24 22 19 18 17 16 14 12 10 8 6 5 7 9 12 14 16 16 16 18 20 21 21 25 31 35 38 35 27 21
40 46 52 54 54 51 49 47 45 40 37 34 31 28 23 20 17 16 15 14 12 10 7 5 6 8 12 14 17 18 19 19 19 20 20 21 23 26 32 35 36 37 31
46 49 55 59 58 55 53 53 50 46 43 40 37 34 29 24 20 19 17 15 13 11 9 8 9 12 15 17 20 22 22 23 22 21 21 20 20 22 26 29 31 35 38
53 52 56 61 64 62 59 59 57 53 50 46 43 39 34 30 27 24 20 19 17 16 15 14 15 16 18 21 24 27 26 26 26 25 25 23 22 21 23 25 27 30 35
53 58 60 61 66 68 67 66 64 59 54 50 48 44 39 35 30 25 23 22 21 20 20 19 20 21 23 27 29 31 32 31 28 28 28 27 25 23 24 24 25 25 24
64 60 65 65 68 70 71 72 70 68 62 57 54 52 47 41 36 32 29 28 26 24 22 23 23 24 28 32 35 37 35 35 31 27 28 26 26 25 24 26 26 25 26
74 65 65 68 70 72 75 75 76 73 68 61 60 57 52 48 42 37 33 30 28 27 26 25 27 28 30 31 33 33 33 32 32 29 27 28 28 26 24 24 26 24 25
76 74 70 71 72 76 77 79 80 77 70 67 65 62 58 52 46 40 36 33 31 29 28 28 28 30 33 35 36 35 34 32 30 30 28 26 24 24 22 23 23 26 26
80 77 75 74 76 78 79 81 82 80 76 73 71 68 63 57 51 45 42 39 35 32 31 30 30 31 34 34 35 34 33 33 32 29 27 22 20 20 19 14 15 17 19
81 80 76 75 77 82 85 84 82 82 80 78 76 72 68 62 57 52 48 45 42 39 35 32 31 34 36 35 34 33 32 33 33 28 24 17 11 10 10 12 13 15 14
80 79 75 75 77 81 86 85 82 82 82 82 79 76 71 66 61 56 54 52 49 43 36 32 30 32 36 36 35 34 35 34 29 26 18 13 9 12 12 13 13 11 11
83 82 77 76 78 82 85 85 85 83 84 82 81 78 73 69 65 63 60 57 53 47 40 35 33 35 36 37 37 35 35 33 24 18 10 17 20 14 11 11 11 17 24
82 76 80 86 85 88 88 87 90 92 87 86 84 81 78 74 72 68 63 62 56 49 42 40 36 32 32 35 37 34 32 17 17 18 12 10 6 6 11 15 28 30 30
71 68 71 82 91 91 90 86 91 91 90 86 85 84 82 80 76 72 67 64 59 55 52 44 37 29 28 29 30 33 11 20 14 19 36 13 8 24 22 27 31 27 30
70 65 64 69 81 88 89 89 90 89 88 89 90 88 90 85 80 74 70 67 63 60 56 49 41 30 23 26 28 19 11 6 23 21 16 27 29 28 29 26 31 31 30
55 54 62 68 76 80 86 89 91 93 93 93 88 89 90 87 82 77 73 69 66 64 62 54 46 34 25 22 25 24 22 26 13 15 14 30 31 37 33 37 35 37 32
41 47 55 62 69 73 81 84 87 91 90 83 86 88 90 88 84 81 78 73 71 68 63 57 47 35 27 23 26 25 23 26 29 26 41 36 40 33 35 38 41 35 39
46 45 51 60 62 65 73 82 87 85 85 85 89 89 90 88 88 86 83 79 76 73 68 59 50 42 31 26 30 33 30 26 26 28 35 49 54 47 46 44 35 44 42
Wind_Direction_850mb
188 186 189 191 194 195 199 202 199 198 197 203 202 209 219 217 208 204 191 171 150 153 174 177 168 160 156 217 241 290 322 348 356 355 352 351 360 20 55 15 8 7 15
192 190 194 198 189 196 203 205 205 208 209 208 210 212 217 220 223 218 202 189 172 164 180 205 212 207 209 212 230 252 279 295 309 324 330 338 347 11 37 346 7 9 357
188 193 193 196 197 196 197 198 193 194 201 201 193 205 212 212 211 208 206 206 201 206 218 231 242 236 235 233 249 258 263 266 279 284 281 277 281 281 267 333 6 360 330
194 196 194 193 196 198 202 202 195 194 201 213 217 220 221 217 223 223 219 212 220 225 232 238 246 253 261 262 262 268 268 271 274 276 280 267 252 247 269 284 298 301 300
202 200 199 197 197 202 206 209 209 215 220 228 234 229 232 237 241 239 234 235 241 247 252 257 256 257 259 265 270 273 276 276 273 268 262 259 251 252 255 290 293 286 291
206 204 202 200 202 204 208 212 214 219 228 235 235 234 235 238 237 237 238 239 243 250 254 262 268 269 271 271 273 272 275 276 274 268 257 251 245 245 258 251 281 290 290
212 210 208 206 207 206 209 215 218 221 223 224 227 228 231 237 243 244 245 245 247 253 259 262 260 266 273 278 281 283 284 281 276 272 264 252 244 243 238 248 256 283 288
217 215 211 212 212 211 213 216 214 215 215 214 214 213 212 212 218 223 225 229 233 240 251 267 292 303 303 295 294 292 291 290 290 289 274 258 246 236 236 241 246 260 279
218 219 218 215 214 215 218 218 216 218 218 217 215 209 203 203 209 211 210 206 199 200 212 237 275 297 303 306 304 304 301 295 290 284 285 282 261 247 241 243 244 230 249
223 221 221 221 219 220 220 217 218 220 219 217 213 211 213 215 216 214 212 210 206 205 212 238 282 306 312 316 318 319 318 310 300 291 284 277 276 273 260 249 249 252 245
225 223 222 223 224 224 223 219 218 219 218 215 214 214 217 218 222 221 221 223 225 230 244 270 294 307 315 320 324 323 319 312 303 293 287 283 276 274 277 274 261 254 253
232 229 224 224 225 226 225 223 222 222 218 216 214 215 214 212 212 216 220 227 234 247 265 279 291 303 313 322 324 324 323 316 305 297 292 288 284 275 270 271 268 263 259
258 239 233 229 226 226 227 227 226 225 223 220 219 219 217 215 213 217 224 233 244 253 258 270 286 300 309 316 320 320 319 316 308 300 292 286 282 280 278 276 276 271 261
255 252 242 236 231 229 227 228 229 228 226 224 222 222 221 219 218 219 224 233 242 251 264 278 288 296 304 312 318 319 320 316 311 301 293 285 278 275 276 276 278 284 283
255 252 248 242 238 235 231 230 229 230 229 226 224 224 222 220 221 223 227 236 248 259 269 277 284 294 305 309 311 314 317 315 307 300 291 287 285 279 276 277 276 279 282
256 252 249 247 242 239 237 233 232 229 228 226 225 225 225 225 225 228 233 240 245 247 256 268 279 290 298 304 308 313 315 313 305 296 291 287 283 280 273 269 272 276 279
265 258 254 249 245 242 240 236 233 231 228 226 226 226 226 226 227 228 232 236 241 250 259 268 279 291 297 301 304 308 313 312 304 294 288 280 277 270 266 268 275 272 279
263 260 256 250 247 244 241 238 234 232 229 228 228 227 227 227 228 229 232 236 242 243 246 258 277 292 299 302 303 306 310 311 304 294 279 269 255 259 282 291 285 289 297
266 263 257 249 247 245 240 239 236 234 231 230 229 229 228 228 229 231 232 234 237 238 243 256 272 286 296 300 302 305 309 310 301 285 268 238 284 299 273 274 278 283 283
266 260 256 250 246 244 239 236 234 232 231 229 229 230 230 230 230 231 231 233 236 236 238 251 265 281 292 300 305 309 312 313 289 263 238 275 299 292 281 294 301 310 307
265 258 256 249 244 239 235 232 229 230 229 228 228 230 230 230 230 231 231 233 235 236 238 246 256 273 290 302 306 310 317 307 281 219 324 316 316 343 318 304 316 316 314
272 267 258 249 244 241 236 233 232 231 229 231 229 227 228 229 230 230 232 234 235 235 236 240 249 266 288 303 312 318 313 308 249 239 297 286 324 322 326 322 325 329 323
276 269 259 250 244 239 235 229 229 229 230 229 227 226 227 228 229 231 232 233 234 233 234 238 244 253 274 297 308 310 319 273 301 298 237 291 319 326 333 339 336 333 331
286 271 253 249 246 238 233 228 229 232 230 231 232 230 228 227 228 230 230 232 233 233 234 236 238 244 259 282 294 294 291 292 302 293 277 288 308 323 333 336 338 338 340
274 256 249 248 245 238 232 230 231 230 233 237 235 232 229 229 229 230 230 230 231 232 232 234 235 240 249 266 281 281 282 287 290 288 305 304 309 322 335 340 339 341 342
263 238 239 240 240 237 230 228 231 232 232 232 232 231 230 230 230 230 230 229 229 229 231 234 235 239 248 260 275 281 278 269 267 270 288 304 316 323 332 336 341 339 340